Flag for Sweden Weather past 2 weeks in Helsingborg, Sweden

Now
57 °F

Overcast.


Feels Like: 57 °F
Forecast: 55 / 63 °F
Wind: 1 mph from North

Location: Ljungbyhed

Current Time: Sep 21, 2014 at 12:12:25 AM

Latest Report: Sep 20, 2014 at 11:20 PM


Visibility: 1 mi

Pressure: 29.89 "Hg

Humidity: 100%

Dew point: 57 °F

Location of HelsingborgLocation

Historic Weather in Helsingborg — Graph

°F

Helsingborg temperature yesterday

Maximum temperature yesterday: 63 °F (at 2:20 PM)
Minimum temperature yesterday: 48 °F (at 12:50 AM)
Average temperature yesterday: 55 °F

Past Weeks' High & Low Weather Summary

 TemperatureHumidityPressure
High73 °F (Sep 6, 2:20 PM)100% (Sep 5, 11:50 PM)30.33 "Hg (Sep 5, 11:50 PM)
Low45 °F (Sep 11, 1:20 AM)52% (Sep 16, 2:50 PM)29.83 "Hg (Sep 9, 7:20 AM)
Average58 °F87%30.10 "Hg
* Reported Sep 5 10:20 PM — Sep 20 10:50 PM, Helsingborg, Weather by CustomWeather, © 2014

Note: Actual official high and low records may vary slightly from our data, if they occured in-between our weather recording intervals... More about our weather records

Advertising

Helsingborg weather history for previous 24 hours

 ConditionsComfort  
Time TempWeatherWind HumidityBarometerVisibility
10:50 PM
Sep 20
55 °FLow clouds.No wind100%29.89 "Hg1 mi
10:20 PM55 °FMostly cloudy.1 mph100%29.92 "Hg0 mi
9:50 PM57 °FPassing clouds.No wind94%29.92 "Hg1 mi
9:20 PM57 °FFog.2 mph100%29.92 "Hg1 mi
8:50 PM57 °FPassing clouds.3 mph100%29.92 "Hg1 mi
8:20 PM57 °FPassing clouds.2 mph100%29.92 "Hg1 mi
7:50 PM55 °FLight fog.1 mph100%29.92 "Hg0 mi
3:20 PM63 °FPartly sunny.3 mph83%29.95 "Hg5 mi
2:50 PM63 °FFog.5 mph83%29.95 "Hg5 mi
2:20 PM63 °FFog.5 mph83%29.98 "Hg4 mi
1:50 PM61 °FFog.6 mph88%29.98 "Hg4 mi
1:20 PM61 °FFog.3 mph88%29.98 "Hg3 mi
12:20 PM59 °FFog.5 mph94%29.98 "Hg2 mi
11:50 AM57 °FFog.8 mph100%29.98 "Hg2 mi
11:20 AM57 °FFog.6 mph100%29.98 "Hg1 mi
10:50 AM57 °FFog.7 mph100%29.98 "Hg1 mi
10:20 AM55 °FFog.7 mph100%29.98 "Hg1 mi
9:50 AM55 °FLow clouds.7 mph100%29.98 "Hg1 mi
9:20 AM55 °FLow clouds.7 mph100%29.98 "Hg1 mi
8:50 AM54 °FFog.6 mph100%29.98 "Hg1 mi
8:20 AM54 °FFog.5 mph100%29.98 "Hg0 mi
7:50 AM54 °FFog.5 mph100%29.98 "Hg0 mi
7:20 AM54 °FFog.5 mph100%29.98 "Hg0 mi
6:50 AM54 °FFog.3 mph100%29.98 "Hg0 mi
6:20 AM54 °FFog.3 mph100%29.98 "Hg0 mi
5:50 AM52 °FFog.3 mph100%29.98 "Hg0 mi
5:20 AM52 °FFog.1 mph100%29.98 "Hg0 mi
4:50 AM52 °FFog.1 mph100%29.98 "Hg0 mi
4:20 AM52 °FFog.3 mph100%29.98 "Hg0 mi
3:20 AM50 °FFog.2 mph100%29.98 "Hg0 mi
2:50 AM50 °FFog.3 mph100%29.98 "Hg0 mi
2:20 AM50 °FFog.3 mph100%29.98 "Hg0 mi
1:50 AM48 °FFog.2 mph100%29.98 "Hg0 mi
1:20 AM48 °FPassing clouds.1 mph100%30.01 "Hg0 mi
12:50 AM48 °FDense fog.1 mph100%30.01 "Hg0 mi
12:20 AM50 °FDense fog.2 mph100%30.01 "Hg0 mi
Weather by CustomWeather, © 2014

See weather overviewHow to use our weather pages